Zurück zum Katalog

FENGYUN 1C DEB

AktivSSO
NORAD 30932·DEBRIS·🇨🇳 China

Gestartet May 10, 1999 von Taiyuan Satellite Launch Center

Loading…

Nächste Überflüge (nächste 24 Stunden)

TLE

AktuellSource: Space-Track

Epoche: Sep 14, 2026, 07:03 UTC

1 30932U 99025AZW 26257.29383409  .00002948  00000-0  11529-2 0  9995
2 30932  98.9116 200.9485 0052496 211.5362 148.2670 14.29576145  3158

Verfolge FENGYUN 1C DEB in Echtzeit mit AllMySat

Download on the App Store